Content
SEND FEEDBACK

Daily
Averages
Monthly
Summary
Iran

MASHHAD, IRAN


Home > Middle East > Iran
Elevation: 3214 feet     Latitude: 36 16N     Longitude: 059 38E

WEATHER
 
SELECT A DAY
Number of Records: 199,643;   Date Range: 2/9/98 - 7/11/14
 
SHARE

PRINT THIS DATA

[ ← Previous Day ]
WEATHER ALMANAC - JANUARY 29, 2013
[ Next Day → ]
[ °C ]   °F
Weather ElementAverageHighLow
Temperature49.4 °F57.2 °F (1:20 pm)42.8 °F (2:00 am)
Dewpoint36.7 °F45 °F (9:30 pm)33.8 °F (12:20 am)
Humidity61.9 %83 % (9:30 pm)31 % (3:30 pm)
Barometer29.89 in30.01 in (12:20 am)29.71 in (11:20 pm)
Wind Speed4.9 mph9.2 mph (2:20 pm)
Weather ElementAverage
Visibility4.9 mi
Wind DirectionSSE (171.7 °)

Weather ElementTotal
Precipitation---
Heating Degree Days15 (Base 65)
Averaged from 71 records on January 29, 2013
WEATHER CONDITIONS BREAKOUT
WIND DIRECTION BREAKOUT
WEATHER BY HOUR - JANUARY 29, 2013
[ °C ]   °F
Local TimeTemperatureDewpointHumidityBarometerVisibilityWind DirectionWind SpeedGust SpeedPrecipitationEventsConditions
12:20 AM44.6 °F33.8 °F66 %30.01 inCalmClear
12:30 AM44.6 °F33.8 °F66 %30.01 inCalmClear
1:20 AM44.6 °F33.8 °F66 %30.01 inCalmClear
1:30 AM44.6 °F33.8 °F66 %30.01 inCalmClear
2:00 AM42.8 °F33.8 °F70 %30.01 inNW (320°)4.6 mphClear
2:30 AM42.8 °F33.8 °F70 %30.01 inCalmClear
3:00 AM42.8 °F33.8 °F70 %30.01 inCalmClear
3:20 AM42.8 °F33.8 °F70 %30.01 in6.2 miNW (320°)6.9 mphScattered Clouds
3:30 AM42.8 °F33.8 °F70 %30.01 in6.2 miNW (320°)6.9 mphScattered Clouds
3:30 AM44.0 °F34.0 °F58 %29.96 in6.0 miNW (320°)6.7 mphScattered Clouds
4:00 AM42.8 °F33.8 °F70 %30.01 in5.0 miSouth (180°)6.9 mphScattered Clouds
4:20 AM44.6 °F33.8 °F66 %29.98 in5.0 miSSE (160°)6.9 mphScattered Clouds
4:30 AM44.6 °F33.8 °F66 %29.98 in5.0 miSSE (160°)6.9 mphScattered Clouds
5:00 AM44.6 °F33.8 °F66 %29.98 in5.0 miSSW (200°)4.6 mphScattered Clouds
5:20 AM42.8 °F33.8 °F70 %29.98 in5.0 miCalmScattered Clouds
5:30 AM42.8 °F33.8 °F70 %29.98 in5.0 miCalmScattered Clouds
6:00 AM42.8 °F33.8 °F70 %29.98 in5.0 miSSE (160°)6.9 mphMostly Cloudy
6:20 AM42.8 °F33.8 °F70 %29.98 in3.7 miCalmOvercast
6:30 AM42.8 °F33.8 °F70 %29.98 in3.7 miCalmOvercast
7:00 AM42.8 °F35.6 °F76 %29.98 in4.3 miCalmMostly Cloudy
7:20 AM42.8 °F35.6 °F76 %29.98 in5.0 miNNE (30°)4.6 mphMostly Cloudy
7:30 AM42.8 °F35.6 °F76 %29.98 in5.0 miNNE (30°)4.6 mphMostly Cloudy
8:00 AM44.6 °F33.8 °F66 %29.98 in5.0 miNW (310°)6.9 mphMostly Cloudy
8:20 AM46.4 °F35.6 °F66 %29.98 in5.0 miNW (320°)4.6 mphMostly Cloudy
8:30 AM46.4 °F35.6 °F66 %29.98 in5.0 miNW (320°)4.6 mphMostly Cloudy
8:55 AM48.2 °F35.6 °F62 %29.95 in5.0 miCalmMostly Cloudy
9:20 AM50.0 °F33.8 °F54 %29.95 in5.0 miENE (60°)4.6 mphMostly Cloudy
9:30 AM49.0 °F34.0 °F45 %29.95 in5.0 miENE (60°)4.5 mphHaze
9:30 AM50.0 °F33.8 °F54 %29.95 in5.0 miENE (60°)4.6 mphMostly Cloudy
9:55 AM51.8 °F35.6 °F54 %29.95 in5.0 miNW (320°)4.6 mphMostly Cloudy
10:20 AM51.8 °F33.8 °F50 %29.95 in5.0 miNW (320°)4.6 mphMostly Cloudy
10:30 AM51.8 °F33.8 °F50 %29.95 in5.0 miNW (320°)4.6 mphMostly Cloudy
10:55 AM53.6 °F33.8 °F47 %29.95 in5.0 miNNW (330°)4.6 mphMostly Cloudy
11:20 AM53.6 °F35.6 °F51 %29.92 in5.0 miWNW (300°)6.9 mphMostly Cloudy
11:30 AM53.6 °F35.6 °F51 %29.92 in5.0 miWNW (300°)6.9 mphMostly Cloudy
12:00 PM53.6 °F35.6 °F51 %29.92 in5.0 miNW (320°)6.9 mphMostly Cloudy
12:20 PM55.4 °F35.6 °F47 %29.89 in5.0 miWNW (300°)4.6 mphMostly Cloudy
1:00 PM55.4 °F35.6 °F47 %29.89 in5.0 miNW (310°)6.9 mphMostly Cloudy
1:20 PM57.2 °F35.6 °F44 %29.86 in5.0 miNE (40°)4.6 mphMostly Cloudy
1:55 PM55.4 °F37.4 °F51 %29.86 in5.0 miNW (310°)6.9 mphMostly Cloudy
2:20 PM53.6 °F37.4 °F54 %29.83 in5.0 miNNE (30°)9.2 mphMostly Cloudy
2:30 PM53.6 °F37.4 °F54 %29.83 in5.0 miNNE (30°)9.2 mphMostly Cloudy
2:55 PM55.4 °F44.6 °F67 %29.83 in5.0 miSE (140°)4.6 mphMostly Cloudy
3:20 PM55.4 °F33.8 °F44 %29.83 in5.0 miSE (130°)4.6 mphMostly Cloudy
3:30 PM55.4 °F33.8 °F44 %29.83 in5.0 miSE (130°)4.6 mphMostly Cloudy
3:30 PM56.0 °F34.0 °F31 %29.81 in5.0 miSE (130°)4.5 mphHaze
3:55 PM53.6 °F35.6 °F51 %29.83 in5.0 miSouth (180°)4.6 mphMostly Cloudy
4:20 PM53.6 °F37.4 °F54 %29.83 in5.0 miNW (320°)4.6 mphMostly Cloudy
4:30 PM53.6 °F37.4 °F54 %29.83 in5.0 miNW (320°)4.6 mphMostly Cloudy
5:00 PM53.6 °F35.6 °F51 %29.83 in3.7 miSouth (170°)4.6 mphMostly Cloudy
5:20 PM55.4 °F35.6 °F47 %29.83 in4.3 miSE (140°)9.2 mphMostly Cloudy
5:30 PM55.4 °F35.6 °F47 %29.83 in4.3 miSE (140°)9.2 mphMostly Cloudy
5:55 PM55.4 °F37.4 °F51 %29.80 in5.0 miNNW (340°)4.6 mphMostly Cloudy
6:20 PM51.8 °F39.2 °F62 %29.80 in5.0 miSE (140°)4.6 mphMostly Cloudy
6:30 PM51.8 °F39.2 °F62 %29.80 in5.0 miSE (140°)4.6 mphMostly Cloudy
6:55 PM53.6 °F39.2 °F58 %29.77 in5.0 miSSE (160°)6.9 mphMostly Cloudy
7:20 PM53.6 °F39.2 °F58 %29.77 in5.0 miSE (130°)6.9 mphMostly Cloudy
7:30 PM53.6 °F39.2 °F58 %29.77 in5.0 miSE (130°)6.9 mphMostly Cloudy
8:00 PM53.6 °F41.0 °F62 %29.77 in5.0 miSSE (150°)6.9 mphMostly Cloudy
8:20 PM50.0 °F41.0 °F71 %29.77 in5.0 miESE (120°)9.2 mphOvercast
8:30 PM50.0 °F41.0 °F71 %29.77 in5.0 miESE (120°)9.2 mphOvercast
9:00 PM50.0 °F44.6 °F82 %29.77 in5.0 miESE (110°)9.2 mphRainLight Rain
9:20 PM50.0 °F44.6 °F82 %29.74 in5.0 miWest (280°)4.6 mphRainLight Rain
9:30 PM49.0 °F45.0 °F83 %29.73 in5.0 miWest (280°)4.5 mphRainLight Rain
9:30 PM50.0 °F44.6 °F82 %29.74 in5.0 miWest (280°)4.6 mphRainLight Rain
10:00 PM50.0 °F42.8 °F76 %29.74 in5.0 miWest (280°)6.9 mphOvercast
10:20 PM50.0 °F41.0 °F71 %29.74 in5.0 miWest (260°)6.9 mphMostly Cloudy
10:30 PM50.0 °F41.0 °F71 %29.74 in5.0 miWest (260°)6.9 mphMostly Cloudy
11:00 PM50.0 °F41.0 °F71 %29.74 in5.0 miWest (270°)4.6 mphRainLight Rain
11:20 PM50.0 °F42.8 °F76 %29.71 in3.7 miSouth (190°)4.6 mphRainRain
11:30 PM50.0 °F42.8 °F76 %29.71 in3.7 miSouth (190°)4.6 mphRainRain
Hourly data recorded from OIMM, located miles away from Mashhad, Iran







STORIES FROM OUR PARTNERS